Location: Staunton
(38.1490°N, 79.0720°W)
Time: 17:47:10
(UTC-04:00)

ISS - Pass Details

Date: 24 March 2017
Orbit: 399 x 409 km, 51.6° (Epoch: 26 March)

Event Time Altitude Azimuth Distance (km) Brightness Sun altitude
Exits shadow 06:24:19 16° 250° (WSW) 1,173 -2.1 -10.4°
Maximum altitude 06:25:12 17° 230° (SW) 1,108 -2.1 -10.2°
Drops below altitude 10° 06:27:27 10° 187° (S) 1,462 -1.2 -9.8°
Sets 06:29:59 0° 166° (SSE) 2,317 0.1 -9.3°
